Starlink 35377

operational
NORAD ID: 66186 Int'l Des: 2025-243 Owner: SPXS Country: US Constellation: starlink
LEOCIRCULAR

About Starlink 35377

Description loading...

Live Position

Loading 3D Globe...

Upcoming Passes

Altitude History

Altitude vs Time

uPlot chart will show altitude changes over time

Two-Line Element Set

1 66186U 25243K 25310.66359600 -.00514430 00000-0 -29058-2 0 9994
2 66186 53.1527 101.3154 0000496 23.6569 336.4476 15.79767646 1751
Epoch: Nov 6, 2025 • Age: 11 hours

Current Status

Altitude 337.0 km
Velocity 7.71 km/s
Sub-Earth Point 45.68°N, 59.87°E
Launch Date Oct 26, 2025
Age 11 days
Type internet

Technical Details

Classification Payload
Mass 575.00 kg
Dry Mass 530.00 kg
Total Mass 575.00 kg
Length 0.30 m
Diameter 4.10 m
Span 29.00 m
Shape Box + pan
Manufacturer SPXS
Bus Type Starlink V2MO
Phase Status In Orbit
Owner/State SPXS/US

Large Constellations

Loading constellations...